Home > Weather > Preveza > Past weeks

Flag for Greece Past Weather in Preveza, Greece — Yesterday and Last 2 Weeks

Now
79 °F

Scattered clouds.


Feels Like: 81 °F
Forecast: 72 / 86 °F
Wind: 5 mph from West

Location: Aktion Airport

Current Time: Jun 26, 2016 at 8:29:55 PM

Latest Report: Jun 26, 2016 at 7:50 PM


Visibility: N/A

Pressure: 29.86 "Hg

Humidity: 61%

Dew Point: 64 °F

Location of PrevezaLocation

Past Weather in Preveza — Graph

°F

Preveza Temperature Yesterday

Maximum temperature yesterday: 93 °F (at 1:20 PM)
Minimum temperature yesterday: 68 °F (at 3:50 AM)
Average temperature yesterday: 80 °F

High & Low Weather Summary for the Past Weeks

 TemperatureHumidityPressure
High97 °F (Jun 22, 1:50 PM)100% (Jun 25, 5:50 PM)30.51 "Hg (Jun 25, 5:50 PM)
Low63 °F (Jun 14, 4:50 AM)23% (Jun 22, 1:50 PM)29.59 "Hg (Jun 13, 11:50 AM)
Average79 °F63%29.88 "Hg
* Reported Jun 11 6:20 PM — Jun 26 6:50 PM, Preveza, Weather by CustomWeather, © 2016

Note: Actual official high and low records may vary slightly from our data, if they occured in-between our weather recording intervals... More about our weather records

Advertising

Preveza Weather History for the Previous 24 Hours

Scroll right to see more
 ConditionsComfort  
Time TempWeatherWind HumidityBarometerVisibility
6:50 PM
Sun, Jun 26
79 °FThunderstorms. Scattered clouds.7 mph65%29.89 "HgN/A
6:20 PM79 °FThunderstorms. Scattered clouds.15 mph70%29.89 "HgN/A
5:50 PM81 °FPassing clouds.12 mph66%29.86 "HgN/A
5:20 PM81 °FPassing clouds.14 mph66%29.86 "HgN/A
4:50 PM81 °FPassing clouds.14 mph66%29.83 "HgN/A
4:20 PM81 °FScattered clouds.14 mph62%29.83 "HgN/A
3:50 PM81 °FScattered clouds.15 mph62%29.83 "HgN/A
3:20 PM79 °FScattered clouds.13 mph70%29.83 "HgN/A
2:50 PM81 °FScattered clouds.10 mph66%29.86 "HgN/A
2:20 PM81 °FScattered clouds.12 mph66%29.86 "HgN/A
1:50 PM79 °FScattered clouds.12 mph70%29.86 "HgN/A
1:20 PM81 °FScattered clouds.12 mph66%29.86 "HgN/A
12:50 PM81 °FScattered clouds.10 mph70%29.86 "HgN/A
12:20 PM79 °FScattered clouds.12 mph74%29.86 "HgN/A
11:50 AM79 °FScattered clouds.13 mph74%29.83 "HgN/A
11:20 AM79 °FScattered clouds.13 mph74%29.83 "HgN/A
10:50 AM79 °FScattered clouds.8 mph74%29.83 "HgN/A
10:20 AM77 °FScattered clouds.6 mph74%29.83 "HgN/A
9:50 AM77 °FScattered clouds.6 mph79%29.83 "HgN/A
9:20 AM77 °FScattered clouds.2 mph79%29.83 "HgN/A
8:50 AM75 °FScattered clouds.3 mph83%29.83 "HgN/A
8:20 AM73 °FScattered clouds.3 mph83%29.83 "HgN/A
7:50 AM73 °FScattered clouds.6 mph83%29.83 "HgN/A
7:20 AM72 °FScattered clouds.9 mph88%29.83 "HgN/A
6:50 AM70 °FPassing clouds.6 mph88%29.83 "HgN/A
6:20 AM70 °FPassing clouds.3 mph88%29.83 "HgN/A
5:50 AM70 °FPassing clouds.No wind88%29.83 "HgN/A
4:50 AM70 °FPassing clouds.3 mph88%29.83 "HgN/A
3:50 AM68 °FPassing clouds.No wind94%29.83 "HgN/A
2:50 AM68 °FPassing clouds.3 mph88%29.83 "HgN/A
12:50 AM68 °FPassing clouds.No wind88%29.86 "HgN/A
11:50 PM
Sat, Jun 25
70 °FPartly cloudy.2 mph83%29.86 "HgN/A
10:50 PM70 °FPartly cloudy.8 mph83%29.83 "HgN/A
9:50 PM72 °FDrizzle. Broken clouds.13 mph78%29.86 "HgN/A
8:50 PM72 °FDrizzle. Broken clouds.7 mph83%29.86 "HgN/A
8:20 PM72 °FBroken clouds.8 mph83%29.83 "HgN/A
Weather by CustomWeather, © 2016

See weather overviewHow to use our weather pages